Regional Weather Roundup
Issued by NWS

Home | Current Version | Previous Version | Text Only | Print | Product List | Glossary On
Versions: 1 2 3 4 5 6 7 8 9 10 11 12 13 14 15 16 17 18 19 20 21 22 23 24 25 26 27 28 29 30 31 32 33 34 35 36 37 38 39 40 41 42 43 44 45 46 47 48 49 50
000
ASUS43 KMPX 231710
RWRMN
WEATHER ROUNDUP FOR MINNESOTA
NATIONAL WEATHER SERVICE TWIN CITIES/CHANHASSEN MN
1200 PM CDT TUE MAY 23 2017


NOTE: "FAIR" INDICATES FEW OR NO CLOUDS BELOW 12,000 FEET WITH NO
SIGNIFICANT WEATHER AND/OR OBSTRUCTIONS TO VISIBILITY. N/A MEANS
CURRENT SKY AND/OR WEATHER CONDITIONS ARE NOT AVAILABLE.

MNZ060>063-068>070-231800-
   Twin Cities Metro

CITY           SKY/WX    TMP DP  RH WIND       PRES   REMARKS
TWIN CITIES    CLOUDY    58  43  57 E10G16    29.82F
ST PAUL        MOSUNNY   57  46  66 N8        29.83F
CRYSTAL        CLOUDY    56  43  61 N8        29.82S
BLAINE         CLOUDY    61  45  55 NE8       29.82F
LAKEVILLE      CLOUDY    54  46  76 N9        29.82S
EDEN PRAIRIE   CLOUDY    55  48  77 N7        29.81F
SOUTH ST PAUL  MOSUNNY   57  44  60 NE7       29.82F
LAKE ELMO      FAIR      55  46  71 NE5       29.83F
$$
MNZ001>005-007-008-013>017-022>024-027-028-231800-
   Northwest Minnesota

CITY           SKY/WX    TMP DP  RH WIND       PRES   REMARKS
BEMIDJI        CLOUDY    47  45  92 NE12      29.94R
HALLOCK        MOSUNNY   61  43  51 NE16G25   30.02F
ROSEAU         PTSUNNY   57  45  62 NE21G30   30.01S
WARROAD        CLOUDY    57  46  67 NE16G24   30.02S
THIEF RVR FALL CLOUDY    52  42  69 NE22G28   30.00S
CROOKSTON      CLOUDY    52  43  71 NE14      30.01S
FOSSTON        CLOUDY    46  46 100 NE12G18   29.97R
DETROIT LAKES  CLOUDY    52  46  82 N10G18    29.93R
MOORHEAD       CLOUDY    52  46  82 N17G25    29.96S
PARK RAPIDS    LGT RAIN  53  40  61 NE10      29.90S
MAHNOMEN       CLOUDY    49  46  87 NE18      29.94S
$$
MNZ006-009>011-018-025>026-231800-
   North Central Minnesota

CITY           SKY/WX    TMP DP  RH WIND       PRES   REMARKS
BAUDETTE       CLOUDY    52  43  71 NE13      29.99S
FLAG ISLAND    PTSUNNY   55  37  50 NE17G28   30.01S
INTL FALLS     CLOUDY    50  43  77 NE13G22   29.96S
WASKISH        CLOUDY    52  45  76 NE12G21   29.96S
BIG FORK       CLOUDY    50  45  81 NE9       29.93S
LONGVILLE      CLOUDY    54  45  71 N5        29.90S
GRAND RAPIDS   CLOUDY    53  43  68 N7        29.92S
CRANE LAKE     CLOUDY    48  46  93 N6        29.95S
ORR            CLOUDY    48  43  81 CALM      29.91R
COOK           CLOUDY    48  45  87 NE6       29.92S
WALKER         CLOUDY    50  44  80 N8        29.91S
$$
MNZ012-019>021-037-231800-
   Northeast Minnesota

CITY           SKY/WX    TMP DP  RH WIND       PRES   REMARKS
DULUTH         CLOUDY    51  46  83 E10       29.88S
ELY            DRIZZLE   48  46  93 CALM      29.91R
HIBBING        CLOUDY    52  45  77 N10       29.89S
EVELETH        CLOUDY    54  43  66 N7        29.90S
DULUTH HARBOR  CLOUDY    46  45  93 NE16      29.90S
TWO HARBORS    CLOUDY    52  46  82 E8        29.89R HAZE
SILVER BAY     CLOUDY    48  46  93 E5        29.89S
GRAND MARAIS     N/A     45  44  97 NE6       29.91R
G MARAIS ARPRT CLOUDY    46  41  81 NE8       29.90F HAZE
$$
MNZ029>031-032-039>041-046>048-054>057-064-231800-
   West Central Minnesota

CITY           SKY/WX    TMP DP  RH WIND       PRES   REMARKS
FERGUS FALLS   LGT RAIN  52  48  87 NE12      29.90R
WHEATON        PTSUNNY   54  46  76 NW16      29.92F
MORRIS         LGT RAIN  50  46  87 NE9       29.87F
ALEXANDRIA     CLOUDY    51  44  77 NE13      29.89S
ELBOW LAKE     CLOUDY    53  45  74 NE14G20   29.89S
WADENA         CLOUDY    52  45  76 NE10      29.89S
GLENWOOD       CLOUDY    50  46  87 NE13      29.88S
APPLETON       CLOUDY    54  46  76 N12G17    29.87F
BENSON         CLOUDY    54  46  76 NE12      29.88F
ORTONVILLE     DRIZZLE   50  46  87 N16       29.89F
MADISON        CLOUDY    54  52  94 N15       29.89S
WILLMAR        PTSUNNY   54  46  76 NE9       29.87S
$$
MNZ033>034-036-042>043-049>051-058-059-231800-
   Central Minnesota

CITY           SKY/WX    TMP DP  RH WIND       PRES   REMARKS
ST CLOUD       CLOUDY    55  47  74 VRB3      29.85S
SAUK CENTRE    CLOUDY    51  44  77 N12       29.87F
PAYNESVILLE    CLOUDY    51  49  92 NE9       29.87S
AITKIN         CLOUDY    54  45  71 NE8       29.87S
PINE RIVER     CLOUDY    54  43  66 NE9G16    29.94R
BRAINERD       CLOUDY    54  43  66 N10       29.88S
STAPLES        CLOUDY    52  41  66 NE7       29.89S
LONG PRAIRIE   CLOUDY    50  45  81 N9        29.88F
LITTLE FALLS   CLOUDY    52  43  71 N5        29.87F
LITCHFIELD     CLOUDY    54  48  82 N7        29.86S
BUFFALO        CLOUDY    52  46  80 NW7       29.85F
MAPLE LAKE     CLOUDY    54  48  81 N6        29.86S
HUTCHINSON     CLOUDY    53  47  80 N5        29.85F
$$
MNZ037-044-045-052-053-231800-
   East Central Minnesota

CITY           SKY/WX    TMP DP  RH WIND       PRES   REMARKS
PRINCETON      CLOUDY    57  46  67 N6        29.85S
MORA           MOSUNNY   55  41  58 NE5       29.86S
CAMBRIDGE      PTSUNNY   61  46  59 NE6       29.82S
RUSH CITY      CLOUDY    57  44  61 N6        29.84F
MOOSE LAKE     CLOUDY    55  43  62 N10       29.85S
HINCKLEY       PTSUNNY   57  45  62 NE10G16   29.84F
CLOQUET        CLOUDY    52  43  71 E7        29.89R
MCGREGOR       CLOUDY    54  45  71 N8        29.89S
$$
MNZ071>073-080-081-089-090-097-098-231800-
   Southwest Minnesota

CITY           SKY/WX    TMP DP  RH WIND       PRES   REMARKS
MONTEVIDEO     RAIN      50  48  93 NE9       29.87S
CANBY          CLOUDY    53  47  79 NW15      29.90S
MARSHALL       RAIN      48  46  93 N16       29.87S
REDWOOD FALLS  CLOUDY    54  45  71 VRB7      29.84F
OLIVIA         CLOUDY    54  43  66 N10       29.84F
PIPESTONE      CLOUDY    52  41  66 N8G18     29.87F
WINDOM         MOSUNNY   54  45  71 N13       29.84F
WORTHINGTON    CLOUDY    50  45  81 N16       29.86S
JACKSON        CLOUDY    52  43  71 N12G17    29.84S
TRACY          CLOUDY    51  48  89 N12       29.86F
SLAYTON        CLOUDY    48  44  86 NW12      29.87F
$$
MNZ065>067-074>077-082>085-091>093-231800-
   South Central Minnesota

CITY           SKY/WX    TMP DP  RH WIND       PRES   REMARKS
MANKATO        LGT RAIN  50  47  89 N10       29.83S
NEW ULM        CLOUDY    50  45  81 N5        29.84R
ST JAMES       CLOUDY    54  45  71 N13       29.84F
FAIRMONT       LGT RAIN  49  45  86 NW12      29.83F
GLENCOE        CLOUDY    52  52 100 N9        29.83S
FARIBAULT      LGT RAIN  54  50  87 CALM      29.82S
OWATONNA       CLOUDY    54  46  76 N7        29.81F
WASECA         DRIZZLE   52  46  82 N7        29.82F
ALBERT LEA     DRIZZLE   54  46  76 N6        29.80F
$$
MNZ078>079-086>088-094>096-231800-
   Southeast Minnesota

CITY           SKY/WX    TMP DP  RH WIND       PRES   REMARKS
ROCHESTER      LGT RAIN  50  49  96 N10       29.81F
RED WING       LGT RAIN  54  46  76 NE3       29.81S
STANTON        CLOUDY    56  47  71 N8        29.80F
DODGE CENTER   CLOUDY    54  46  76 NE8       29.80S
WINONA         CLOUDY    54  48  82 CALM      29.78S
AUSTIN         CLOUDY    54  48  82 W10       29.79F
PRESTON        LGT RAIN  50  47  91 N9        29.79F
$$
ABBREVIATIONS USED IN REMARKS
   TC - TEMPERATURES IN CELSIUS
  WCI - WIND CHILL INDEX
   HX - HEAT INDEX
  VSB - VISIBILITY
$$




USA.gov is the U.S. government's official web portal to all federal, state and local government web resources and services.